Date String (YYYY-MM-DD hh:mm:ss) UTC,Instrument flags,absolute air pressure of the measurement (hPa),sample flow rate (lpm),inlet stack bypass flow (lpm),air temperature of the measurement (°C),ambient temperature measured by the external sensor (°C),aerosol sample conditioner tube jacket temperature (°C),OPC LED temperature (°C),internal box temperature (°C),relative humidity of the measurement (%),span deviation,mass concentration of particles derived from Lorenz-Mie calculation of OPC scattering (μg/m³),mass concentration of particles derived from Lorenz-Mie calculation of OPC scattering (μg/m³),mass concentration of particles derived from Lorenz-Mie calculation of OPC scattering (μg/m³)
DateTimeUTC,F1_M11,P_M11,Q1_M11,Q2_M11,T1_M11,T2_M11,T3_M11,T4_M11,T5_M11,U1_M11,ZSPAN_M11,X0_M11,X2_M11,X1_M11
2023-11-30 23:00:00,SystemResetWarning,0822.0,5.01,000.00,023.3,022.3,000.0,031.5,024.7,10.6,0000.0,0012.15,0005.76,0005.18
2023-11-30 23:01:00,SystemResetWarning,0822.0,5.00,000.00,023.3,022.3,000.0,031.5,024.7,10.6,0000.4,0012.13,0005.78,0005.19
2023-11-30 23:02:00,SystemResetWarning,0822.0,4.99,000.00,023.3,022.3,000.0,031.5,024.7,10.6,0003.6,0011.47,0005.80,0005.20
2023-11-30 23:03:00,SystemResetWarning,0822.0,4.99,000.00,023.3,022.3,000.0,031.5,024.7,10.6,0000.0,0011.23,0005.79,0005.21
2023-11-30 23:04:00,SystemResetWarning,0822.0,5.00,000.00,023.3,022.3,000.0,031.5,024.7,10.7,0002.2,0010.90,0005.76,0005.21
2023-11-30 23:05:00,SystemResetWarning,0821.9,4.99,000.00,023.3,022.3,000.0,031.5,024.7,10.7,0003.3,0010.39,0005.78,0005.22
2023-11-30 23:06:00,SystemResetWarning,0821.9,5.00,000.00,023.4,022.3,000.0,031.5,024.7,10.8,0001.1,0009.28,0005.79,0005.22
2023-11-30 23:07:00,SystemResetWarning,0822.0,5.01,000.00,023.4,022.3,000.0,031.5,024.7,10.8,0000.0,0009.36,0005.82,0005.22
2023-11-30 23:08:00,SystemResetWarning,0822.0,5.00,000.00,023.4,022.3,000.0,031.5,024.7,10.8,0000.0,0009.34,0005.81,0005.23
2023-11-30 23:09:00,SystemResetWarning,0822.0,5.00,000.00,023.3,022.3,000.0,031.5,024.7,10.8,0000.0,0009.60,0005.81,0005.23
2023-11-30 23:10:00,SystemResetWarning,0822.0,5.00,000.00,023.4,022.3,000.0,031.6,024.7,10.8,0000.0,0010.41,0005.79,0005.24
2023-11-30 23:11:00,SystemResetWarning,0822.0,5.00,000.00,023.4,022.3,000.0,031.6,024.8,10.9,0000.0,0010.65,0005.83,0005.25
2023-11-30 23:12:00,SystemResetWarning,0821.9,5.00,000.00,023.4,022.3,000.0,031.6,024.7,10.9,0000.0,0010.91,0005.85,0005.25
2023-11-30 23:13:00,SystemResetWarning,0822.0,4.99,000.00,023.4,022.3,000.0,031.6,024.7,10.9,0000.0,0011.34,0005.85,0005.25
2023-11-30 23:14:00,SystemResetWarning,0822.0,4.99,000.00,023.4,022.3,000.0,031.6,024.8,10.9,0000.0,0011.33,0005.84,0005.26
2023-11-30 23:15:00,SystemResetWarning,0822.0,5.00,000.00,023.4,022.3,000.0,031.6,024.8,11.0,0000.0,0011.32,0005.84,0005.27
2023-11-30 23:16:00,SystemResetWarning,0822.0,5.01,000.00,023.4,022.3,000.0,031.6,024.7,11.0,0000.0,0011.33,0005.85,0005.27
2023-11-30 23:17:00,SystemResetWarning,0822.0,5.01,000.00,023.4,022.3,000.0,031.6,024.7,11.0,0000.0,0011.21,0005.83,0005.28
2023-11-30 23:18:00,SystemResetWarning,0821.9,5.01,000.00,023.4,022.3,000.0,031.6,024.7,11.1,0000.0,0011.25,0005.82,0005.28
2023-11-30 23:19:00,SystemResetWarning,0822.0,5.00,000.00,023.4,022.3,000.0,031.6,024.7,11.1,0000.0,0011.37,0005.85,0005.28
2023-11-30 23:20:00,SystemResetWarning,0822.0,4.98,000.00,023.4,022.3,000.0,031.6,024.7,11.2,0000.5,0011.57,0005.88,0005.29
2023-11-30 23:21:00,SystemResetWarning,0822.0,4.99,000.00,023.4,022.3,000.0,031.6,024.7,11.2,0000.0,0011.27,0005.90,0005.29
2023-11-30 23:22:00,SystemResetWarning,0822.0,5.01,000.00,023.4,022.3,000.0,031.6,024.7,11.2,0000.0,0011.49,0005.90,0005.29
2023-11-30 23:23:00,SystemResetWarning,0822.0,5.01,000.00,023.4,022.3,000.0,031.6,024.8,11.2,0000.0,0011.81,0005.88,0005.29
2023-11-30 23:24:00,SystemResetWarning,0822.0,4.99,000.00,023.4,022.3,000.0,031.6,024.8,11.2,0000.0,0011.15,0005.89,0005.31
2023-11-30 23:25:00,SystemResetWarning,0822.0,4.99,000.00,023.4,022.3,000.0,031.6,024.7,11.2,0000.0,0011.80,0005.88,0005.31
2023-11-30 23:26:00,SystemResetWarning,0822.0,4.99,000.00,023.4,022.3,000.0,031.6,024.7,11.1,0000.0,0011.88,0005.90,0005.30
2023-11-30 23:27:00,SystemResetWarning,0822.0,5.01,000.00,023.4,022.3,000.0,031.6,024.7,11.1,0000.0,0011.92,0005.91,0005.29
2023-11-30 23:28:00,SystemResetWarning,0822.0,5.00,000.00,023.4,022.3,000.0,031.6,024.7,11.0,0000.0,0011.94,0005.91,0005.28
2023-11-30 23:29:00,SystemResetWarning,0822.0,5.00,000.00,023.4,022.3,000.0,031.6,024.7,11.0,0000.0,0012.28,0005.91,0005.29
2023-11-30 23:30:00,SystemResetWarning,0822.0,5.01,000.00,023.4,022.3,000.0,031.6,024.7,11.0,0000.0,0012.51,0005.87,0005.29
2023-11-30 23:31:00,SystemResetWarning,0822.0,5.00,000.00,023.4,022.3,000.0,031.6,024.8,11.0,0000.0,0012.74,0005.83,0005.27
2023-11-30 23:32:00,SystemResetWarning,0822.0,5.00,000.00,023.4,022.3,000.0,031.6,024.7,11.0,0000.0,0012.16,0005.80,0005.25
2023-11-30 23:33:00,SystemResetWarning,0822.0,5.00,000.00,023.4,022.3,000.0,031.6,024.7,11.0,0000.0,0011.52,0005.77,0005.24
2023-11-30 23:34:00,SystemResetWarning,0821.9,5.00,000.00,023.4,022.3,000.0,031.6,024.8,11.0,0000.0,0011.27,0005.73,0005.23
2023-11-30 23:35:00,SystemResetWarning,0822.0,5.00,000.00,023.4,022.3,000.0,031.6,024.7,11.0,0000.0,0011.51,0005.71,0005.20
2023-11-30 23:36:00,SystemResetWarning,0821.9,4.99,000.00,023.4,022.3,000.0,031.6,024.7,11.0,0000.0,0011.15,0005.72,0005.19
2023-11-30 23:37:00,SystemResetWarning,0821.9,4.99,000.00,023.4,022.3,000.0,031.6,024.7,11.0,0000.0,0011.16,0005.71,0005.17
2023-11-30 23:38:00,SystemResetWarning,0821.9,5.01,000.00,023.4,022.3,000.0,031.6,024.7,11.0,0000.0,0011.28,0005.71,0005.16
2023-11-30 23:39:00,SystemResetWarning,0822.0,5.01,000.00,023.3,022.3,000.0,031.6,024.7,11.0,0000.0,0011.77,0005.70,0005.15
2023-11-30 23:40:00,SystemResetWarning,0821.9,5.00,000.00,023.3,022.3,000.0,031.6,024.7,11.0,0000.0,0011.68,0005.67,0005.12
2023-11-30 23:41:00,SystemResetWarning,0821.9,4.99,000.00,023.3,022.2,000.0,031.6,024.7,11.0,0000.0,0011.29,0005.67,0005.11
2023-11-30 23:42:00,SystemResetWarning,0821.9,5.00,000.00,023.3,022.2,000.0,031.6,024.7,10.9,0000.0,0011.57,0005.65,0005.09
2023-11-30 23:43:00,SystemResetWarning,0821.9,4.99,000.00,023.3,022.2,000.0,031.6,024.7,10.8,0000.0,0011.87,0005.65,0005.09
2023-11-30 23:44:00,SystemResetWarning,0822.0,5.00,000.00,023.3,022.2,000.0,031.6,024.7,10.8,0000.0,0012.35,0005.66,0005.08
2023-11-30 23:45:00,SystemResetWarning,0821.9,5.00,000.00,023.3,022.2,000.0,031.6,024.7,10.8,0000.0,0012.34,0005.68,0005.07
2023-11-30 23:46:00,SystemResetWarning,0821.9,5.00,000.00,023.3,022.2,000.0,031.6,024.7,10.8,0000.0,0012.89,0005.68,0005.06
2023-11-30 23:47:00,SystemResetWarning,0822.0,5.02,000.00,023.3,022.2,000.0,031.6,024.7,10.8,0000.0,0013.21,0005.66,0005.06
2023-11-30 23:48:00,SystemResetWarning,0821.9,4.99,000.00,023.3,022.2,000.0,031.6,024.7,10.8,0000.0,0013.39,0005.69,0005.05
2023-11-30 23:49:00,SystemResetWarning,0821.9,4.99,000.00,023.3,022.2,000.0,031.6,024.7,10.8,0000.0,0013.65,0005.64,0005.03
2023-11-30 23:50:00,SystemResetWarning,0822.0,5.01,000.00,023.3,022.2,000.0,031.6,024.7,10.8,0000.0,0014.13,0005.64,0005.00
2023-11-30 23:51:00,SystemResetWarning,0822.0,5.00,000.00,023.3,022.2,000.0,031.6,024.7,10.9,0000.0,0014.01,0005.70,0005.01
2023-11-30 23:52:00,SystemResetWarning,0822.0,4.98,000.00,023.3,022.2,000.0,031.6,024.7,10.9,0000.0,0014.07,0005.71,0005.00
2023-11-30 23:53:00,SystemResetWarning,0822.0,5.00,000.00,023.3,022.2,000.0,031.6,024.7,10.9,0000.0,0013.64,0005.70,0005.00
2023-11-30 23:54:00,SystemResetWarning,0821.9,5.00,000.00,023.3,022.2,000.0,031.6,024.7,11.0,0000.0,0013.20,0005.68,0004.99
2023-11-30 23:55:00,SystemResetWarning,0821.9,5.00,000.00,023.3,022.2,000.0,031.6,024.7,11.0,0000.0,0012.98,0005.67,0004.97
2023-11-30 23:56:00,SystemResetWarning,0822.0,5.00,000.00,023.3,022.2,000.0,031.6,024.7,11.0,0000.0,0012.19,0005.60,0004.95
2023-11-30 23:57:00,SystemResetWarning,0821.9,5.01,000.00,023.3,022.2,000.0,031.6,024.7,11.1,0000.0,0011.98,0005.59,0004.93
2023-11-30 23:58:00,SystemResetWarning,0822.0,4.99,000.00,023.3,022.2,000.0,031.6,024.7,11.1,0000.0,0011.29,0005.60,0004.93
2023-11-30 23:59:00,SystemResetWarning,0821.9,4.99,000.00,023.3,022.2,000.0,031.5,024.7,11.2,0000.0,0010.97,0005.55,0004.91
